Regional Weather Roundup
Issued by NWS

Home | Current Version | Previous Version | Graphics & Text | Print | Product List | Glossary On
Versions: 1 2 3 4 5 6 7 8 9 10 11 12 13 14 15 16 17 18 19 20 21 22 23 24 25 26 27 28 29 30 31 32 33 34 35 36 37 38 39 40 41 42 43 44 45 46 47 48 49 50
000
ASUS43 KFSD 222102
RWRSD

WEATHER ROUNDUP FOR SOUTH DAKOTA
NATIONAL WEATHER SERVICE SIOUX FALLS SD
400 PM CDT SUN APR 22 2018

NOTE: "FAIR" INDICATES FEW OR NO CLOUDS BELOW 12,000 FEET WITH NO
SIGNIFICANT WEATHER AND/OR OBSTRUCTIONS TO VISIBILITY.


SDZ001>005-009-010-012>017-222200-
NORTHWEST AND NORTH CENTRAL SOUTH DAKOTA

CITY           SKY/WX    TMP DP  RH WIND       PRES   REMARKS
BUFFALO          N/A     68  32  26 NE10      30.02F
FAITH            N/A     64  38  38 SE5       30.08F
MOBRIDGE       SUNNY     65  40  39 S15       30.10F
$$

SDZ012>016-024>037-041>051-057-063-072>074-222200-
SOUTHWEST AND SOUTH CENTRAL SOUTH DAKOTA

CITY           SKY/WX    TMP DP  RH WIND       PRES   REMARKS
RAPID CTY ARPT SUNNY     66  38  35 NE7       30.08F
PIERRE         SUNNY     63  39  41 S15       30.13F
CUSTER         SUNNY     60  35  39 SE8       30.12F
ELLSWORTH AFB  SUNNY    N/A N/A N/A E3        30.08F
PHILIP         SUNNY     64  39  39 S9        30.10F
PINE RIDGE     SUNNY     64  39  39 SW7       30.10F
WINNER         FAIR      61  38  42 S15       30.17F
$$

SDZ004>011-016>023-039-040-222200-
NORTHEAST SOUTH DAKOTA

CITY           SKY/WX    TMP DP  RH WIND       PRES   REMARKS
ABERDEEN       SUNNY     65  33  30 S20       30.18F
WATERTOWN      SUNNY     59  39  47 S13       30.21F
SISSETON         N/A     63  39  41 S18       30.20F
$$

SDZ017-020-022-023-036>040-048>070-222200-
SOUTHEAST SOUTH DAKOTA

CITY           SKY/WX    TMP DP  RH WIND       PRES   REMARKS
SIOUX FALLS    MOSUNNY   62  35  36 E13G25    30.21F
HURON          SUNNY     62  37  39 S18G25    30.19F
CHAMBERLAIN    SUNNY     62  38  39 S9        30.18F
MITCHELL       SUNNY     61  38  42 SE10G28   30.20F
YANKTON        SUNNY     63  32  31 E10       30.19F
$$

ABBREVIATIONS USED IN REMARKS
   TC - TEMPERATURE IN CELSIUS
  WCI - WIND CHILL INDEX
   HX - HEAT INDEX
  VSB - VISIBILITY





USA.gov is the U.S. government's official web portal to all federal, state and local government web resources and services.